www.pogodaiklimat.ru

Погода и климат >> Архив погоды >> Монголия >> Амарбуйантайан


ПОГОДА в Амарбуйантайане

  • Прогноз погоды в Амарбуйантайане
  • Монитор погоды в Амарбуйантайане

АРХИВ ПОГОДЫ в Амарбуйантайане

Время (UTC), дата Ветер
(напр.,м/с)
 
Видим.   Явления Облачность Т
(С)
Тd
(С)
f
(%)
Тe
(С)
Тes
(С)
Комфортность P
(гПа)
Po
(гПа)
Тmin
(С)
Tmax
(С)
R
(мм)
R24
(мм)
S
(см)
18 19.05 ЮЗ 8 50 км 1/0
[Ci]
+3.5 -11.7 32 -2 -2 1027.7 781.9
21 19.05 Ю 8 50 км 3/0
[Ci]
+1.9 -14.3 29 -4 -4 1028.0 780.9
00 20.05 ЮЗ 6 50 км 4/0 2000 м
[Ac lent Ci]
+6.8 -10.1 29 +3 +4 1023.1 780.9 +1.6
03 20.05 З 7 50 км 8/0
[Cs]
+11.5 -9.5 22 +9 +12 1018.5 780.9
06 20.05 З 7 50 км 9/0 2000 м
[Ac lent Cs]
+13.3 -6.4 25 +11 +15 1015.7 780.0
09 20.05 З 9 50 км 9/0 2000 м
[Ac lent Cs]
+14.2 -8.5 20 +12 +13 1013.4 778.9
12 20.05 ЮЗ 8 50 км 6/0 2000 м
[Ac trans Ci fib]
+13.1 -9.3 20 +11 +11 1014.2 778.7 +14.9
15 20.05 ЮЗ 6 50 км 3/0 2000 м
[Ac lent]
+9.7 -10.3 23 +7 +7 1018.4 779.5
18 20.05 ЮЗ 6 50 км 3/0
[Ci fib]
+7.4 -12.8 22 +4 +4 1020.3 779.2
21 20.05 ЮЗ 5 50 км ясно +5.7 -12.6 25 +2 +2 1021.2 778.6
00 21.05 З 3 50 км 1/0
[Ci fib]
+12.3 -7.3 25 +11 +14 1015.7 779.3 +5.7
03 21.05 З 6 50 км ясно +16.7 -8.3 17 +16 +21 1011.6 779.3
06 21.05 З 8 50 км ясно +18.8 -8.4 15 +18 +21 1008.4 778.3
09 21.05 З 10 50 км ясно +19.3 -7.1 16 +18 +19 1006.3 777.0
12 21.05 З 9 50 км ясно +18.8 -4.6 20 +18 +18 1006.0 776.4 +20.2
15 21.05 ЮЗ 4 50 км ясно +12.9 -9.3 20 +12 +12 1012.4 777.2
18 21.05 ЮЗ 7 50 км ясно +10.5 -7.7 27 +8 +8 1013.9 776.6
21 21.05 ЮЗ 6 50 км ясно +9.4 -7.2 30 +7 +7 1014.4 776.2
00 22.05 ЮЗ 4 50 км ясно +15.5 -3.5 27 +15 +17 1008.8 776.3 +8.9
03 22.05 З 6 50 км ясно +19.2 -4.2 20 +19 +24 1005.2 776.1
06 22.05 З 8 50 км ясно +20.9 -3.4 19 +20 +23 1002.0 774.8
09 22.05 З 7 50 км 4/0 2000 м
[Ac lent Ci fib]
+22.5 -5.9 14 +21 +23 комфорт 998.7 773.3
12 22.05 З 7 50 км 5/0 2000 м
[Ac lent Ci fib]
+20.0 -5.0 18 +19 +19 1000.6 773.1 +22.5
15 22.05 ЮЗ 6 50 км ясно +15.1 -6.4 22 +14 +14 1006.2 774.0
18 22.05 ЮЗ 7 50 км 3/0
[Ci fib]
+12.7 -6.0 27 +10 +10 1007.6 773.4
21 22.05 ЮЗ 4 50 км ясно +12.1 -5.7 28 +11 +11 1007.4 772.8
00 23.05 З 5 50 км ясно +16.5 -2.6 27 +16 +17 1004.0 773.3 +8.7
03 23.05 З 7 50 км 3/0
[Ci fib]
+20.8 -0.9 23 +20 +24 1000.4 773.5
06 23.05 З 9 50 км 4/0 2000 м
[Ac lent Ci fib]
+21.8 -6.4 15 +20 +22 997.8 772.6
09 23.05 З 8 50 км 8/3 1000 м
[Cu hum Ac lent Ci]
+21.7 -5.4 16 +20 +21 992.3 771.4
12 23.05 З 8 50 км 6/1 1000 м
[Cu hum Ci fib]
+19.6 -1.9 23 +19 +19 999.2 771.7 +22.8
15 23.05 З 4 50 км ясно +15.0 -2.8 29 +14 +14 1004.6 772.7
18 23.05 СЗ 5 50 км 3/0
[Ci fib]
+10.2 -0.6 47 +8 +8 1009.3 772.9
21 23.05 СЗ 5 н/о 4/0 2000 м
[Ac lent Ci fib]
+8.2 -1.0 52 +5 +5 1010.6 772.4
00 24.05 СЗ 10
{14}
50 км 8/3 600 м
[Sc Ac und]
+7.6 -4.7 41 +3 +3 1012.3 773.3 +7.0
03 24.05 СЗ 5
{14}
50 км 8/0 2000 м
[Ac lent Cs]
+10.9 -4.7 33 +9 +14 1010.0 773.9
06 24.05 З 12
{17}
50 км 9/0 2000 м
[Ac und Ci]
+12.9 -6.7 25 +10 +10 1006.8 772.9
09 24.05 З 13
{19}
50 км 9/0 2000 м
[Ac und Ci]
+11.9 -11.1 19 +8 +8 1006.6 772.0
12 24.05 ЮЗ 6
{17}
600 м 5/0 50 м
[Ac lent Ci]
+10.0 -9.1 25 +7 +8 1009.4 772.8 +13.8
15 24.05 СВ 4 50 км 3/0
[Ci fib]
+5.8 -13.3 24 +3 +3 1015.3 774.2
18 24.05 С 5 50 км 3/0 2000 м
[Ac lent Ci fib]
+2.0 -14.0 29 -2 -2 1020.1 775.0
21 24.05 С 5 50 км 3/1 600 м
[Sc Ac lent]
-0.7 -6.6 64 -7 -7 1023.6 775.5
00 25.05 СЗ 12
{16}
50 км ясно +1.6 -5.4 60 -6 -6 1022.8 776.7 -0.9
03 25.05 СЗ 10
{16}
50 км 1/1 1000 м
[Cu hum]
+4.8 -7.2 41 -1 -0 1020.5 777.4
06 25.05 СЗ 7 50 км 3/3 1000 м
[Cu med, cong]
+7.2 -11.4 25 +3 +7 1018.1 777.4
09 25.05 С 9
{19}
50 км 9/5 1000 м
[Cu med, cong Ac As Ci fib]
+7.0 -10.1 28 +3 +3 1018.8 777.8
12 25.05 С 11
{18}
50 км 8/4 1000 м
[Sc diur, vesp Ac lent Ci]
+5.8 -12.0 26 +1 +1 1022.0 779.3 +9.5
15 25.05 СВ 9
{16}
50 км 3/0 2000 м
[Ac lent]
+3.1 -6.5 49 -3 -3 1026.9 781.0
18 25.05 СВ 3 50 км 3/0
[Ci]
+0.4 -4.3 71 -4 -4 1031.7 782.5
21 25.05 СВ 4 50 км ясно -0.9 -4.9 74 -6 -6 1034.6 783.7
00 26.05 СВ 6 50 км ясно +1.8 -4.0 65 -4 -3 1033.7 785.1 -2.5
03 26.05 ЮВ 5 50 км 3/0
[Ci]
+5.4 -5.7 45 +2 +9 1031.0 785.9
06 26.05 В 3 50 км 4/0 2000 м
[Ac lent Ci fib]
+10.0 -4.2 36 +8 +22 опасность
простуды
1025.7 785.3
09 26.05 ЮЗ 3 50 км 6/0 2000 м
[Ac lent Ci]
+13.0 -5.6 27 +12 +18 1022.1 784.7
12 26.05 ЮЗ 5 50 км 9/0 2000 м
[Ac lent Cs]
+11.1 -5.3 31 +9 +9 1024.7 785.3 +13.6
15 26.05 Ю 4 н/о 5/0 2000 м
[Ac lent Ci fib]
+7.9 -6.0 37 +5 +5 1029.3 786.5

 

Местоположение метеостанции Амарбуйантайан (Монголия): широта 44.62 долгота 98.70 высота над уровнем моря 2103 м.

В архиве по умолчанию представлена погода в Амарбуйантайане за последнюю неделю. Архивные данные за месяц целиком и за предыдущие месяцы, начиная с января 2011 года, Вы можете получить, выбрав интересующий диапазон дат из раскрывающегося списка и нажав кнопку "Ввод!".


*Определитесь, кто Вы:
робот инопланетянин человек

Внимание! Время в таблицах - всемирное. Для получения местного времени необходимо прибавить поправку, которая равна 8 ч.

Смотрите также архив погоды в соседних городах и на ближайших метеорологических станциях:

Погода в Эрдэни (Монголия) (94 км)
Погода в Шинэ Уса (Монголия) (227 км)
Погода в Баянхонгоре (Монголия) (228 км)
Погода в Баянбулаге (Монголия) (250 км)
Погода в Галууте (Монголия) (257 км)
Погода в Богде (Монголия) (274 км)
Погода в Алтае (Монголия) (275 км)
Погода в Наомаоху (Синьцзян-Уйгурский автономный район, Китай) (307 км)
Погода в Мазонг Шанчжэнь (Ганьсу, Китай) (342 км)
Погода в Эдзин-Ци (Внутренняя Монголия, Китай) (353 км)

Пояснения к столбцам:

Ветер - указаны скорость ветра в м/с - средняя за 10 мин, порывы в срок и между сроками (в фигурных скобках) и направление, откуда дует ветер: С - северный, СВ - северо-восточный, В - восточный, ЮВ - юго-восточный, Ю - южный, ЮЗ - юго-западный, З - западный, СЗ - северо-западный.
Видимость - горизонтальная дальность видимости в метрах или километрах. При видимости от 1 до 10 км при отсутствии осадков обычно наблюдается дымка, при ухудшении видимости до 1 км и менее - туман. В сухую погоду видимость может ухудшаться дымом, пылью или мглою.
Явления - указаны атмосферные явления, наблюдавшиеся в срок или в последний час перед сроком; фигурными скобками обозначены явления, наблюдавшиеся между сроками (за 1-3 часа до срока); квадратными скобками обозначены град или гололедные отложения с указанием их диаметра в мм.
Облачность - указаны через наклонную черту общая и нижняя облачность в баллах и высота нижней границы облаков в метрах; квадратными скобками обозначены формы облаков: Ci - перистые, Cs - перисто-слоистые, Cc - перисто-кучевые, Ac - высококучевые, As - высокослоистые, Sc - слоисто-кучевые, Ns - слоисто-дождевые, Cu - кучевые, Cb - кучево-дождевые. Подробнее классификацию облаков см. в Атласе облаков (PDF).
T - Температура воздуха - температура, измеренная на высоте 2 м над землей.
Td - Температура точки росы - температура, при понижении до которой содержащийся в воздухе водяной пар достигнет насыщения.
f - Относительная влажность воздуха - влажноcть воздуха, измеренная на высоте 2 м над землей.
Te - Эффективная температура - температура, которую ощущает одетый по сезону человек в тени. Характеристика душности погоды. При расчете учитывается влияние влажности воздуха и скорости ветра на теплоощущения человека.
Tes - Эффективная температура на солнце - температура, которую ощущает человек, с поправкой на солнечный нагрев. Характеристика знойности погоды. Зависит от высоты солнца над горизонтом, облачности и скорости ветра. Ночью, в пасмурную погоду, а также при ветре 12 м/с и более поправка равна нулю.
P - Атмосферное давление - приведенное к уровню моря атмосферное давление.
Po - Атмосферное давление - измеренное на уровне метеостанции атмосферное давление.
Tmin - Минимальная температура - минимум температуры воздуха на высоте 2 м над землей.
Tmax - Максимальная температура - максимум температуры воздуха на высоте 2 м над землей.
R - Количество осадков - Количество выпавших осадков за период времени, мм. При наведении курсора мыши на число - период времени, за который выпало указанное количество осадков.
R24 - Количество осадков - Количество выпавших осадков за 24 часа, мм.
S - Снежный покров - Высота снежного покрова, см. При наведении курсора мыши на число - состояние снежного покрова и степень покрытия местности в баллах.